Location: Ferchesar
(52.6477°N, 12.4298°E)
Time: 17:30:29
(UTC+01:00)

Vanguard 1 - Pass Details

Date: 08 December 2021
Orbit: 652 x 3830 km, 34.2° (Epoch: 22 January)

Event Time Altitude Azimuth Distance (km) Brightness Sun altitude
Rises 00:32:14 0° 242° (WSW) 7,236 - -59.5°
Reaches altitude 10° 00:37:02 10° 237° (WSW) 6,497 - -59.3°
Maximum altitude 00:57:25 45° 174° (S) 4,620 - -58.3°
Exits shadow 01:09:28 27° 124° (SE) 5,212 13.5 -57.4°
Drops below altitude 10° 01:16:25 10° 111° (ESE) 6,101 14.1 -56.9°
Sets 01:20:43 0° 105° (ESE) 6,784 14.5 -56.5°
